Hourly Data Report for February 13, 2013

BAGOTVILLE A
QUEBEC

48°20'00.000" N
71°00'00.000" W
159.10 m
7060400
71727
YBG

Download Data

Hourly Data (February 2013)
Hourly Data Report for February 13, 2013
TIME
LST
Temp Definition
°C
Dew Point Definition
°C
Rel Hum Definition
%
Precip. Amount Definition
mm

Wind Dir Definition
10's deg

Wind Spd Definition
km/h
Visibility Definition
km
Stn Press Definition
kPa
Hmdx Definition


Wind Chill Definition


Weather Definition


00:00 -4.6 -7.4 81   29 19 12.9 98.55   -11 Snow Showers
01:00 -5.0 -7.2 85   29 19 16.1 98.62   -11 Snow Showers
02:00 -5.4 -8.4 79   29 19 12.9 98.66   -12 Snow Showers
03:00 -6.2 -8.7 82   30 17 12.9 98.64   -12 Snow Showers
04:00 -6.5 -9.0 82   29 20 12.9 98.69   -13 Snow Showers
05:00 -7.0 -9.3 84   29 17 9.7 98.75   -13 Snow Showers
06:00 -7.3 -10.0 81   29 15 9.7 98.77   -13 Snow Showers
07:00 -7.7 -10.1 83   29 13 8.0 98.82   -13 Snow Showers
08:00 -7.9 -10.3 83   28 9 6.4 98.86   -12 Snow Showers
09:00 -7.8 -10.2 83   29 15 6.4 98.88   -14 Snow Showers
10:00 -6.7 -10.4 75   29 11 24.1 98.88   -12 Snow Showers
11:00 -5.5 -10.0 71   30 17 16.1 98.89   -12 Snow Showers
12:00 -5.3 -10.1 69   31 13 24.1 98.84   -10 Snow Showers
13:00 -4.8 -10.2 66   31 11 32.2 98.80   -9 Snow Showers
14:00 -4.9 -10.7 64   35 9 24.1 98.76   -9 Snow Showers
15:00 -4.8 -8.0 78   1 9 40.2 98.76   -9 Snow Showers
16:00 -5.0 -7.2 85   5 4 32.2 98.76   -7 Mostly Cloudy
17:00 -5.4 -8.7 78   10 6 32.2 98.78   -8 Mostly Cloudy
18:00 -5.9 -9.0 79   18 4 24.1 98.83   -8 Cloudy
19:00 -6.9 -9.5 82   18 4 24.1 98.83   -9 Cloudy
20:00 -7.2 -9.5 84   17 4 24.1 98.83   -9 Cloudy
21:00 -7.5 -10.2 81   13 6 24.1 98.82   -11 Mostly Cloudy
22:00 -10.2 -11.4 91   16 6 24.1 98.84   -14 Mostly Cloudy
23:00 -10.0 -12.0 85   14 4 24.1 98.82   -12 Mostly Cloudy

Notes on Data Quality.

Legend

  • E = Estimated
  • M = Missing
  • NA = Not Available*
  • [empty] = Indicates an unobserved value
Date modified: